This is the latest recevied weather packets stored in our database for station/object LY3PGO-4. If no packets are shown the sender has not sent any weather packets the latest 1 day(s).
| Time | Temp. | Humidity | Pressure | Rain* | Wind** | Luminosity | Snow |
|---|---|---|---|---|---|---|---|
| 1836274632 | 15° C | 99% | 1019.7 hPa | 0 mm | 0 m/s | - | - |
| 1836274502 | 15° C | 99% | 1019.8 hPa | 0 mm | 0 m/s | - | - |
| 1836274028 | 15° C | 99% | 1019.6 hPa | 0 mm | 0 m/s | - | - |
| 1778033587 | 8.89° C | 74% | 1009.9 hPa | 0 mm | 1.34 m/s, 157° | - | - |
| 1778032978 | 8.89° C | 77% | 1009.8 hPa | 0 mm | 0.89 m/s, 112° | - | - |
| 1778032373 | 8.89° C | 79% | 1009.7 hPa | 0 mm | 0.89 m/s, 135° | - | - |
| 1778031766 | 9.44° C | 82% | 1009.5 hPa | 0 mm | 0.45 m/s, 202° | - | - |
| 1778031160 | 9.44° C | 83% | 1009.5 hPa | 0 mm | 0.89 m/s, 112° | - | - |
| 1778030557 | 9.44° C | 87% | 1009.1 hPa | 0 mm | 1.34 m/s, 157° | - | - |
| 1778029947 | 9.44° C | 89% | 1009.4 hPa | 0 mm | 0.89 m/s, 135° | - | - |
| 1778029341 | 9.44° C | 90% | 1009.4 hPa | 0 mm | 0.45 m/s, 135° | - | - |
| 1778028735 | 10° C | 90% | 1009.4 hPa | 0 mm | 0.45 m/s, 135° | - | - |
| 1778028129 | 9.44° C | 89% | 1009.4 hPa | 0 mm | 0.89 m/s, 157° | - | - |
| 1778027525 | 10° C | 89% | 1009.3 hPa | 0 mm | 0 m/s | - | - |
| 1778026916 | 10° C | 88% | 1009.4 hPa | 0 mm | 0.45 m/s, 135° | - | - |
| 1778026309 | 10° C | 87% | 1009.4 hPa | 0.25 mm | 0 m/s | - | - |
| 1778025703 | 10° C | 87% | 1009.3 hPa | 0.25 mm | 0.45 m/s, 135° | - | - |
| 1778025111 | 10° C | 87% | 1009.4 hPa | 0.25 mm | 0 m/s | - | - |
| 1778024519 | 10° C | 88% | 1009.1 hPa | 0.25 mm | 0 m/s | - | - |
| 1778023885 | 10° C | 87% | 1009.1 hPa | 0.25 mm | 0 m/s | - | - |
| 1778023279 | 10.56° C | 87% | 1008.8 hPa | 0 mm | 0 m/s | - | - |
| 1778022673 | 10.56° C | 86% | 1009.2 hPa | 0 mm | 0 m/s | - | - |
| 1778022066 | 10° C | 88% | 1009.1 hPa | 0 mm | 0 m/s | - | - |
| 1778021463 | 10.56° C | 86% | 1009 hPa | 0 mm | 0 m/s | - | - |
| 1778020853 | 10.56° C | 87% | 1008.8 hPa | 0 mm | 0 m/s | - | - |
* Rain latest hour (hover to see other rain measurements)
** Current wind speed in m/s (hover to see current wind gust speed)